Time,TemperatureF,DewpointF,PressureIn,WindDirection,WindDirectionDegrees,WindSpeedMPH,WindSpeedGustMPH,Humidity,HourlyPrecipIn,Conditions,Clouds,dailyrainin,SolarRadiationWatts/m^2,SoftwareType,DateUTC
2013-03-17 00:02:00,-3.0,-10.0,-100.00,NW,312,2.0,5.0,71,0.00,,,0.00,0.000000,,2013-03-17 05:02:00,
2013-03-17 00:32:00,-4.0,-11.0,-100.00,NW,310,2.0,5.0,70,0.00,,,0.00,0.000000,,2013-03-17 05:32:00,
2013-03-17 00:42:00,-4.0,-11.0,-100.00,NW,310,2.0,5.0,70,0.00,,,0.00,0.000000,,2013-03-17 05:42:00,
2013-03-17 00:52:00,-4.0,-11.0,-100.00,NW,310,2.0,5.0,70,0.00,,,0.00,0.000000,,2013-03-17 05:52:00,
2013-03-17 01:02:00,-4.0,-11.0,-100.00,NW,310,2.0,5.0,70,0.00,,,0.00,0.000000,,2013-03-17 06:02:00,
2013-03-17 01:32:00,-6.0,-13.0,-100.00,NW,315,2.0,4.0,72,0.00,,,0.00,0.000000,,2013-03-17 06:32:00,
2013-03-17 01:42:00,-6.0,-13.0,-100.00,NW,315,2.0,4.0,72,0.00,,,0.00,0.000000,,2013-03-17 06:42:00,
2013-03-17 01:52:00,-6.0,-13.0,-100.00,NW,315,2.0,4.0,72,0.00,,,0.00,0.000000,,2013-03-17 06:52:00,
2013-03-17 02:02:00,-6.0,-13.0,-100.00,NW,315,2.0,4.0,72,0.00,,,0.00,0.000000,,2013-03-17 07:02:00,
2013-03-17 02:22:00,-6.0,-13.0,-100.00,West,280,3.0,5.0,71,0.00,,,0.00,0.000000,,2013-03-17 07:22:00,
2013-03-17 02:32:00,-6.0,-13.0,-100.00,West,280,3.0,5.0,71,0.00,,,0.00,0.000000,,2013-03-17 07:32:00,
2013-03-17 02:42:00,-6.0,-13.0,-100.00,West,280,3.0,5.0,71,0.00,,,0.00,0.000000,,2013-03-17 07:42:00,
2013-03-17 02:52:00,-6.0,-13.0,-100.00,West,280,3.0,5.0,71,0.00,,,0.00,0.000000,,2013-03-17 07:52:00,
2013-03-17 03:02:00,-6.0,-13.0,-100.00,West,280,3.0,5.0,71,0.00,,,0.00,0.000000,,2013-03-17 08:02:00,
2013-03-17 03:33:00,-8.0,-15.0,-100.00,WNW,282,3.0,4.0,71,0.00,,,0.00,0.000000,,2013-03-17 08:33:00,
2013-03-17 03:42:00,-8.0,-15.0,-100.00,WNW,282,3.0,4.0,71,0.00,,,0.00,0.000000,,2013-03-17 08:42:00,
2013-03-17 03:52:00,-8.0,-15.0,-100.00,WNW,282,3.0,4.0,71,0.00,,,0.00,0.000000,,2013-03-17 08:52:00,
2013-03-17 04:02:00,-8.0,-15.0,-100.00,WNW,282,3.0,4.0,71,0.00,,,0.00,0.000000,,2013-03-17 09:02:00,
2013-03-17 04:22:00,-9.0,-16.0,-100.00,West,281,3.0,4.0,72,0.00,,,0.00,0.000000,,2013-03-17 09:22:00,
2013-03-17 04:33:00,-9.0,-16.0,-100.00,West,281,3.0,4.0,72,0.00,,,0.00,0.000000,,2013-03-17 09:33:00,
2013-03-17 04:43:00,-9.0,-16.0,-100.00,West,281,3.0,4.0,72,0.00,,,0.00,0.000000,,2013-03-17 09:43:00,
2013-03-17 04:53:00,-9.0,-16.0,-100.00,West,281,3.0,4.0,72,0.00,,,0.00,0.000000,,2013-03-17 09:53:00,
2013-03-17 05:03:00,-9.0,-16.0,-100.00,West,281,3.0,4.0,72,0.00,,,0.00,0.000000,,2013-03-17 10:03:00,
2013-03-17 05:33:00,-8.0,-14.0,-100.00,North,359,2.0,4.0,73,0.00,,,0.00,0.000000,,2013-03-17 10:33:00,
2013-03-17 05:42:00,-8.0,-14.0,-100.00,North,359,2.0,4.0,73,0.00,,,0.00,0.000000,,2013-03-17 10:42:00,
2013-03-17 05:52:00,-8.0,-14.0,-100.00,North,359,2.0,4.0,73,0.00,,,0.00,0.000000,,2013-03-17 10:52:00,
2013-03-17 06:02:00,-8.0,-14.0,-100.00,North,359,2.0,4.0,73,0.00,,,0.00,0.000000,,2013-03-17 11:02:00,
2013-03-17 06:22:00,-10.0,-17.0,-100.00,NE,52,2.0,2.0,71,0.00,,,0.00,0.000000,,2013-03-17 11:22:00,
2013-03-17 06:32:00,-10.0,-17.0,-100.00,NE,52,2.0,2.0,71,0.00,,,0.00,0.000000,,2013-03-17 11:32:00,
2013-03-17 06:43:00,-10.0,-17.0,-100.00,NE,52,2.0,2.0,71,0.00,,,0.00,0.000000,,2013-03-17 11:43:00,
2013-03-17 06:52:00,-10.0,-17.0,-100.00,NE,52,2.0,2.0,71,0.00,,,0.00,0.000000,,2013-03-17 11:52:00,
2013-03-17 07:02:00,-10.0,-17.0,-100.00,NE,52,2.0,2.0,71,0.00,,,0.00,0.000000,,2013-03-17 12:02:00,
2013-03-17 07:22:00,-11.0,-17.0,-100.00,East,98,2.0,4.0,74,0.00,,,0.00,0.000000,,2013-03-17 12:22:00,
2013-03-17 07:33:00,-11.0,-17.0,-100.00,East,98,2.0,4.0,74,0.00,,,0.00,0.000000,,2013-03-17 12:33:00,
2013-03-17 07:43:00,-11.0,-17.0,-100.00,East,98,2.0,4.0,74,0.00,,,0.00,0.000000,,2013-03-17 12:43:00,
2013-03-17 07:52:00,-11.0,-17.0,-100.00,East,98,2.0,4.0,74,0.00,,,0.00,0.000000,,2013-03-17 12:52:00,
2013-03-17 08:02:00,-11.0,-17.0,-100.00,East,98,2.0,4.0,74,0.00,,,0.00,0.000000,,2013-03-17 13:02:00,
2013-03-17 08:32:00,-5.0,-12.0,-100.00,SE,135,3.0,5.0,70,0.00,,,0.00,31.000000,,2013-03-17 13:32:00,
2013-03-17 08:43:00,-5.0,-12.0,-100.00,SE,135,3.0,5.0,70,0.00,,,0.00,31.000000,,2013-03-17 13:43:00,
2013-03-17 08:52:00,-5.0,-12.0,-100.00,SE,135,3.0,5.0,70,0.00,,,0.00,31.000000,,2013-03-17 13:52:00,
2013-03-17 09:02:00,-5.0,-12.0,-100.00,SE,135,3.0,5.0,70,0.00,,,0.00,31.000000,,2013-03-17 14:02:00,
2013-03-17 09:22:00,-2.0,-14.0,-100.00,SE,133,5.0,9.0,56,0.00,,,0.00,142.000000,,2013-03-17 14:22:00,
2013-03-17 09:33:00,-2.0,-14.0,-100.00,SE,133,5.0,9.0,56,0.00,,,0.00,142.000000,,2013-03-17 14:33:00,
2013-03-17 09:42:00,-2.0,-14.0,-100.00,SE,133,5.0,9.0,56,0.00,,,0.00,142.000000,,2013-03-17 14:42:00,
2013-03-17 09:53:00,-2.0,-14.0,-100.00,SE,133,5.0,9.0,56,0.00,,,0.00,142.000000,,2013-03-17 14:53:00,
2013-03-17 10:02:00,-2.0,-14.0,-100.00,SE,133,5.0,9.0,56,0.00,,,0.00,142.000000,,2013-03-17 15:02:00,
2013-03-17 10:33:00,7.0,-11.0,-100.00,SE,146,6.0,11.0,43,0.00,,,0.00,410.000000,,2013-03-17 15:33:00,
2013-03-17 10:43:00,7.0,-11.0,-100.00,SE,146,6.0,11.0,43,0.00,,,0.00,410.000000,,2013-03-17 15:43:00,
2013-03-17 10:53:00,7.0,-11.0,-100.00,SE,146,6.0,11.0,43,0.00,,,0.00,410.000000,,2013-03-17 15:53:00,
2013-03-17 11:03:00,7.0,-11.0,-100.00,SE,146,6.0,11.0,43,0.00,,,0.00,410.000000,,2013-03-17 16:03:00,
2013-03-17 11:23:00,14.0,-11.0,-100.00,SSE,151,6.0,11.0,31,0.00,,,0.00,600.000000,,2013-03-17 16:23:00,
2013-03-17 11:33:00,14.0,-11.0,-100.00,SSE,151,6.0,11.0,31,0.00,,,0.00,600.000000,,2013-03-17 16:33:00,
2013-03-17 11:43:00,14.0,-11.0,-100.00,SSE,151,6.0,11.0,31,0.00,,,0.00,600.000000,,2013-03-17 16:43:00,
2013-03-17 11:52:00,14.0,-11.0,-100.00,SSE,151,6.0,11.0,31,0.00,,,0.00,600.000000,,2013-03-17 16:52:00,
2013-03-17 12:02:00,14.0,-11.0,-100.00,SSE,151,6.0,11.0,31,0.00,,,0.00,600.000000,,2013-03-17 17:02:00,
2013-03-17 12:33:00,18.0,-12.0,-100.00,South,181,6.0,12.0,25,0.00,,,0.00,727.000000,,2013-03-17 17:33:00,
2013-03-17 12:42:00,18.0,-12.0,-100.00,South,181,6.0,12.0,25,0.00,,,0.00,727.000000,,2013-03-17 17:42:00,
2013-03-17 12:53:00,18.0,-12.0,-100.00,South,181,6.0,12.0,25,0.00,,,0.00,727.000000,,2013-03-17 17:53:00,
2013-03-17 13:02:00,18.0,-12.0,-100.00,South,181,6.0,12.0,25,0.00,,,0.00,727.000000,,2013-03-17 18:02:00,
2013-03-17 13:22:00,21.0,-11.0,-100.00,SSW,195,7.0,14.0,23,0.00,,,0.00,800.000000,,2013-03-17 18:22:00,
2013-03-17 13:32:00,21.0,-11.0,-100.00,SSW,195,7.0,14.0,23,0.00,,,0.00,800.000000,,2013-03-17 18:32:00,
2013-03-17 13:42:00,21.0,-11.0,-100.00,SSW,195,7.0,14.0,23,0.00,,,0.00,800.000000,,2013-03-17 18:42:00,
2013-03-17 13:52:00,21.0,-11.0,-100.00,SSW,195,7.0,14.0,23,0.00,,,0.00,800.000000,,2013-03-17 18:52:00,
2013-03-17 14:02:00,21.0,-11.0,-100.00,SSW,195,7.0,14.0,23,0.00,,,0.00,800.000000,,2013-03-17 19:02:00,
2013-03-17 14:23:00,24.0,-7.0,-100.00,South,170,7.0,14.0,24,0.01,,,0.01,745.000000,,2013-03-17 19:23:00,
2013-03-17 14:33:00,24.0,-7.0,-100.00,South,170,7.0,14.0,24,0.01,,,0.01,745.000000,,2013-03-17 19:33:00,
2013-03-17 14:42:00,24.0,-7.0,-100.00,South,170,7.0,14.0,24,0.01,,,0.01,745.000000,,2013-03-17 19:42:00,
2013-03-17 14:53:00,24.0,-7.0,-100.00,South,170,7.0,14.0,24,0.01,,,0.01,745.000000,,2013-03-17 19:53:00,
2013-03-17 15:02:00,24.0,-7.0,-100.00,South,170,7.0,14.0,24,0.01,,,0.01,745.000000,,2013-03-17 20:02:00,
2013-03-17 15:33:00,24.0,-2.0,-100.00,SSE,151,7.0,14.0,32,0.00,,,0.01,440.000000,,2013-03-17 20:33:00,
2013-03-17 15:43:00,24.0,-2.0,-100.00,SSE,151,7.0,14.0,32,0.00,,,0.01,440.000000,,2013-03-17 20:43:00,
2013-03-17 15:52:00,24.0,-2.0,-100.00,SSE,151,7.0,14.0,32,0.00,,,0.01,440.000000,,2013-03-17 20:52:00,
2013-03-17 16:02:00,24.0,-2.0,-100.00,SSE,151,7.0,14.0,32,0.00,,,0.01,440.000000,,2013-03-17 21:02:00,
2013-03-17 16:33:00,26.0,0.0,-100.00,SE,143,7.0,14.0,31,0.00,,,0.01,325.000000,,2013-03-17 21:33:00,
2013-03-17 16:43:00,26.0,0.0,-100.00,SE,143,7.0,14.0,31,0.00,,,0.01,325.000000,,2013-03-17 21:43:00,
2013-03-17 16:52:00,26.0,0.0,-100.00,SE,143,7.0,14.0,31,0.00,,,0.01,325.000000,,2013-03-17 21:52:00,
2013-03-17 17:03:00,26.0,0.0,-100.00,SE,143,7.0,14.0,31,0.00,,,0.01,325.000000,,2013-03-17 22:03:00,
2013-03-17 17:33:00,26.0,0.0,-100.00,SE,142,8.0,14.0,31,0.00,,,0.01,426.000000,,2013-03-17 22:33:00,
2013-03-17 17:42:00,26.0,0.0,-100.00,SE,142,8.0,14.0,31,0.00,,,0.01,426.000000,,2013-03-17 22:42:00,
2013-03-17 17:53:00,26.0,0.0,-100.00,SE,142,8.0,14.0,31,0.00,,,0.01,426.000000,,2013-03-17 22:53:00,
2013-03-17 18:02:00,26.0,0.0,-100.00,SE,142,8.0,14.0,31,0.00,,,0.01,426.000000,,2013-03-17 23:02:00,
2013-03-17 18:23:00,23.0,-4.0,-100.00,SE,140,7.0,18.0,30,0.00,,,0.01,219.000000,,2013-03-17 23:23:00,
2013-03-17 18:33:00,23.0,-4.0,-100.00,SE,140,7.0,18.0,30,0.00,,,0.01,219.000000,,2013-03-17 23:33:00,
2013-03-17 18:43:00,23.0,-4.0,-100.00,SE,140,7.0,18.0,30,0.00,,,0.01,219.000000,,2013-03-17 23:43:00,
2013-03-17 18:53:00,23.0,-4.0,-100.00,SE,140,7.0,18.0,30,0.00,,,0.01,219.000000,,2013-03-17 23:53:00,
2013-03-17 19:03:00,23.0,-4.0,-100.00,SE,140,7.0,18.0,30,0.00,,,0.01,219.000000,,2013-03-18 00:03:00,
2013-03-17 19:33:00,20.0,-3.0,-100.00,SSE,149,5.0,13.0,35,0.00,,,0.01,54.000000,,2013-03-18 00:33:00,
2013-03-17 19:42:00,20.0,-3.0,-100.00,SSE,149,5.0,13.0,35,0.00,,,0.01,54.000000,,2013-03-18 00:42:00,
2013-03-17 19:53:00,20.0,-3.0,-100.00,SSE,149,5.0,13.0,35,0.00,,,0.01,54.000000,,2013-03-18 00:53:00,
2013-03-17 20:02:00,20.0,-3.0,-100.00,SSE,149,5.0,13.0,35,0.00,,,0.01,54.000000,,2013-03-18 01:02:00,
2013-03-17 20:33:00,18.0,0.0,-100.00,SE,141,6.0,13.0,44,0.00,,,0.01,2.000000,,2013-03-18 01:33:00,
2013-03-17 20:42:00,18.0,0.0,-100.00,SE,141,6.0,13.0,44,0.00,,,0.01,2.000000,,2013-03-18 01:42:00,
2013-03-17 20:52:00,18.0,0.0,-100.00,SE,141,6.0,13.0,44,0.00,,,0.01,2.000000,,2013-03-18 01:52:00,
2013-03-17 21:02:00,18.0,0.0,-100.00,SE,141,6.0,13.0,44,0.00,,,0.01,2.000000,,2013-03-18 02:02:00,
2013-03-17 21:22:00,17.0,0.0,-100.00,SE,128,8.0,14.0,47,0.00,,,0.01,0.000000,,2013-03-18 02:22:00,
2013-03-17 21:32:00,17.0,0.0,-100.00,SE,128,8.0,14.0,47,0.00,,,0.01,0.000000,,2013-03-18 02:32:00,
2013-03-17 21:42:00,17.0,0.0,-100.00,SE,128,8.0,14.0,47,0.00,,,0.01,0.000000,,2013-03-18 02:42:00,
2013-03-17 21:52:00,17.0,0.0,-100.00,SE,128,8.0,14.0,47,0.00,,,0.01,0.000000,,2013-03-18 02:52:00,
2013-03-17 22:02:00,17.0,0.0,-100.00,SE,128,8.0,14.0,47,0.00,,,0.01,0.000000,,2013-03-18 03:02:00,
2013-03-17 22:33:00,16.0,3.0,-100.00,SE,135,9.0,17.0,55,0.00,,,0.01,0.000000,,2013-03-18 03:33:00,
2013-03-17 22:42:00,16.0,3.0,-100.00,SE,135,9.0,17.0,55,0.00,,,0.01,0.000000,,2013-03-18 03:42:00,
2013-03-17 22:53:00,16.0,3.0,-100.00,SE,135,9.0,17.0,55,0.00,,,0.01,0.000000,,2013-03-18 03:53:00,
2013-03-17 23:03:00,16.0,3.0,-100.00,SE,135,9.0,17.0,55,0.00,,,0.01,0.000000,,2013-03-18 04:03:00,
2013-03-17 23:23:00,16.0,7.0,-100.00,SE,135,7.0,16.0,66,0.00,,,0.01,0.000000,,2013-03-18 04:23:00,
2013-03-17 23:33:00,16.0,7.0,-100.00,SE,135,7.0,16.0,66,0.00,,,0.01,0.000000,,2013-03-18 04:33:00,
2013-03-17 23:42:00,16.0,7.0,-100.00,SE,135,7.0,16.0,66,0.00,,,0.01,0.000000,,2013-03-18 04:42:00,
2013-03-17 23:53:00,16.0,7.0,-100.00,SE,135,7.0,16.0,66,0.00,,,0.01,0.000000,,2013-03-18 04:53:00,